Weather observations for the past three days for
Zelienople Municipal Airport
Imperial (Metric)
Date Time (edt) Wind (mph) Vis. (mi.) Weather Sky Cond. Temperature (ºF) Relative Humidity Wind Chill (°F) Heat Index (°F) Pressure Precipitation (in)
Air Dwpt 6 hour altimeter (in) sea level (mb) 1 hr 3 hr 6 hr
Max. Min.
17 09:55 SW 3 10.00 Light Rain BKN021 BKN029 OVC048 75.2 69.8 83% 75 29.89 0.0
17 09:35 SW 5 10.00 Overcast OVC019 75.2 68 78% 76 29.89 0.0
17 09:15 S 6 10.00 Overcast OVC019 75.2 68 78% 76 29.89 0.0
17 08:35 SW 3 10.00 Overcast SCT019 OVC060 73.4 68 83% 29.9 0.0
17 08:15 S 5 7.00 Mostly Cloudy BKN019 BKN046 BKN055 73.4 68 83% 29.89 0.0
17 07:55 Calm 10.00 Partly Cloudy SCT055 73.4 68 83% 29.89 0.0
17 07:35 SE 3 10.00 Partly Cloudy SCT041 73.4 68 83% 29.89 0.0
17 07:15 Calm 10.00 Mostly Cloudy SCT039 BKN047 73.4 68 83% 29.89 0.0
17 06:55 S 3 10.00 Overcast BKN037 OVC045 73.4 68 83% 29.89 0.0
17 06:35 Calm 10.00 Mostly Cloudy BKN038 BKN045 71.6 68 88% 29.88 0.0
17 06:15 Calm 10.00 Mostly Cloudy BKN036 71.6 68 88% 29.88 0.0
17 05:55 Calm 10.00 Overcast OVC040 73.4 68 83% 29.86 0.0
17 05:35 Calm 10.00 Overcast BKN034 OVC041 73.4 68 83% 29.86 0.0
17 05:15 Calm 10.00 Mostly Cloudy SCT032 BKN038 71.6 68 88% 29.86 0.0
17 04:55 Calm 10.00 Partly Cloudy SCT060 71.6 68 88% 29.86 0.0
17 04:35 Calm 10.00 Mostly Cloudy BKN060 BKN090 69.8 68 94% 29.86 0.0
17 04:15 Calm 10.00 Overcast OVC060 69.8 68 94% 29.85 0.0
17 03:55 Calm 10.00 Mostly Cloudy BKN060 BKN070 BKN100 69.8 68 94% 29.86 0.0
17 03:35 Calm 10.00 Mostly Cloudy SCT070 BKN090 69.8 66.2 88% 29.86 0.0
17 03:15 Calm 10.00 Overcast BKN070 OVC090 69.8 68 94% 29.86 0.0
17 02:55 Calm 10.00 Overcast SCT060 SCT080 OVC090 68 68 100% 29.86 0.0
17 02:35 Calm 10.00 Mostly Cloudy SCT080 BKN100 68 68 100% 29.86 0.0
17 02:15 Calm 10.00 Overcast SCT075 OVC090 68 66.2 94% 29.86 0.0
17 01:55 Calm 10.00 Mostly Cloudy SCT075 BKN090 68 66.2 94% 29.86 0.0
17 01:35 NW 3 10.00 Fair CLR 68 66.2 94% 29.85 0.0
17 01:15 Calm 10.00 Partly Cloudy SCT100 68 66.2 94% 29.85 0.0
17 00:55 N 3 10.00 Fair CLR 68 66.2 94% 29.85 0.0
17 00:35 N 5 10.00 Fair CLR 68 66.2 94% 29.86 0.0
17 00:15 Calm 7.00 Fair CLR 68 68 100% 29.86 0.0
16 23:55 N 3 10.00 Fair CLR 69.8 68 94% 29.85 0.0
16 23:35 Calm 10.00 Fair CLR 69.8 66.2 88% 29.86 0.0
16 23:15 Calm 10.00 Fair CLR 69.8 66.2 88% 29.86 0.0
16 22:55 Calm 10.00 Fair CLR 69.8 68 94% 29.86 0.0
16 22:35 Calm 10.00 Fair CLR 71.6 68 88% 29.86 0.0
16 22:15 Calm 10.00 Fair CLR 73.4 66.2 78% 29.86 0.0
16 21:55 Calm 10.00 Fair CLR 73.4 64.4 74% 29.86 0.0
16 21:35 Calm 10.00 Fair CLR 77 64.4 65% 79 29.86 0.0
16 21:15 Calm 10.00 Fair CLR 78.8 64.4 61% 81 29.86 0.0
16 20:55 Calm 10.00 Fair CLR 80.6 62.6 54% 82 29.86 0.0
16 20:35 W 3 10.00 Fair CLR 82.4 62.6 51% 83 29.85 0.0
16 20:15 Calm 10.00 Fair CLR 84.2 62.6 48% 85 29.84 0.0
16 19:55 Calm 10.00 Fair CLR 86 62.6 46% 87 29.84 0.0
16 19:35 W 5 10.00 Fair CLR 86 62.6 46% 87 29.84 0.0
16 19:15 W 5 10.00 Fair CLR 86 62.6 46% 87 29.84 0.0
16 18:55 W 5 10.00 Fair CLR 87.8 62.6 43% 88 29.83 0.0
16 18:35 NW 5 10.00 Fair CLR 87.8 60.8 40% 88 29.84 0.0
16 18:15 W 6 10.00 Fair CLR 87.8 60.8 40% 88 29.84 0.0
16 17:55 NW 6 10.00 Fair CLR 89.6 60.8 38% 90 29.83 0.0
16 17:35 W 8 10.00 Fair CLR 89.6 60.8 38% 90 29.84 0.0
16 17:15 NW 7 10.00 Fair CLR 89.6 60.8 38% 90 29.83 0.0
16 16:55 NW 8 10.00 Fair CLR 89.6 60.8 38% 90 29.83 0.0
16 16:35 NW 7 10.00 Fair CLR 89.6 60.8 38% 90 29.83 0.0
16 16:15 NW 6 10.00 Fair CLR 89.6 60.8 38% 90 29.83 0.0
16 15:55 W 7 10.00 Fair CLR 89.6 60.8 38% 90 29.84 0.0
16 15:35 W 6 10.00 Partly Cloudy SCT050 87.8 60.8 40% 88 29.85 0.0
16 15:15 SW 5 10.00 Fair CLR 87.8 60.8 40% 88 29.85 0.0
16 14:55 W 8 10.00 Fair CLR 87.8 60.8 40% 88 29.85 0.0
16 14:35 W 8 10.00 Fair CLR 87.8 60.8 40% 88 29.85 0.0
16 14:15 W 6 10.00 Fair CLR 86 60.8 43% 86 29.85 0.0
16 13:55 SW 7 10.00 Partly Cloudy SCT047 86 59 40% 85 29.85 0.0
16 13:35 W 6 G 17 10.00 Partly Cloudy SCT047 86 60.8 43% 86 29.86 0.0
16 13:15 W 7 G 16 10.00 Partly Cloudy SCT047 SCT050 86 62.6 46% 87 29.86 0.0
16 12:55 W 12 G 17 10.00 Partly Cloudy SCT045 SCT050 86 62.6 46% 87 29.86 0.0
16 12:35 W 8 G 18 10.00 Partly Cloudy SCT043 86 62.6 46% 87 29.86 0.0
16 12:15 W 8 G 20 10.00 Partly Cloudy SCT043 SCT050 86 62.6 46% 87 29.86 0.0
16 11:55 W 13 G 24 10.00 Partly Cloudy SCT043 82.4 60.8 48% 83 29.87 0.0
16 11:35 SW 10 G 20 10.00 Fair CLR 82.4 62.6 51% 83 29.86 0.0
16 11:15 W 10 G 23 10.00 Fair CLR 82.4 62.6 51% 83 29.85 0.0
16 10:55 SW 10 G 17 10.00 Fair CLR 86 62.6 46% 87 29.84 0.0
16 10:35 SW 13 G 20 10.00 Partly Cloudy SCT042 SCT047 84.2 62.6 48% 85 29.83 0.0
16 10:15 SW 13 G 20 10.00 Partly Cloudy SCT040 SCT046 82.4 64.4 55% 84 29.82 0.0
16 09:55 SW 10 G 20 10.00 Partly Cloudy SCT040 82.4 64.4 55% 84 29.82 0.0
16 09:35 S 13 10.00 Fair CLR 82.4 66.2 58% 85 29.81 0.0
16 09:15 S 7 10.00 Fair CLR 80.6 68 66% 83 29.81 0.0
16 08:55 S 9 10.00 Fair CLR 78.8 68 70% 81 29.81 0.0
16 08:35 SW 7 10.00 Fair CLR 78.8 68 70% 81 29.8 0.0
16 08:15 S 8 10.00 Fair CLR 77 68 74% 79 29.79 0.0
16 07:55 S 3 10.00 Fair CLR 77 66.2 69% 79 29.78 0.0
16 07:35 SE 7 10.00 Fair CLR 75.2 66.2 74% 77 29.78 0.0
16 07:15 SE 9 10.00 Fair CLR 73.4 64.4 74% 29.77 0.0
16 06:55 SE 6 10.00 Fair CLR 73.4 64.4 74% 29.79 0.0
16 06:35 Calm 10.00 Fair CLR 69.8 66.2 88% 29.8 0.0
16 06:15 Calm 10.00 Partly Cloudy SCT080 SCT100 69.8 66.2 88% 29.81 0.0
16 05:55 Calm 10.00 Mostly Cloudy SCT070 BKN080 BKN100 68 66.2 94% 29.83 0.0
16 05:35 Calm 10.00 Partly Cloudy SCT080 68 64.4 88% 29.82 0.0
16 05:15 Calm 10.00 Partly Cloudy SCT075 68 64.4 88% 29.82 0.0
16 04:55 Calm 10.00 Partly Cloudy SCT075 66.2 64.4 94% 29.83 0.0
16 04:35 N 3 10.00 Fair CLR 66.2 66.2 100% 29.82 0.0
16 04:15 N 3 10.00 Fair CLR 66.2 66.2 100% 29.81 0.0
16 03:55 Calm 10.00 Fair CLR 66.2 66.2 100% 29.81 0.0
16 03:35 Calm 10.00 Fair CLR 68 66.2 94% 29.82 0.0
16 03:15 Calm 10.00 Partly Cloudy SCT060 68 66.2 94% 29.84 0.0
16 02:55 Calm 10.00 Partly Cloudy SCT060 68 68 100% 29.85 0.0
16 02:35 Calm 10.00 Fair CLR 68 68 100% 29.86 0.0
16 02:15 Calm 10.00 Partly Cloudy SCT050 69.8 68 94% 29.86 0.0
16 01:55 Calm 10.00 Partly Cloudy SCT044 SCT050 SCT080 69.8 68 94% 29.86 0.0
16 01:35 Calm 10.00 Partly Cloudy SCT043 69.8 68 94% 29.86 0.0
16 01:15 Calm 10.00 Partly Cloudy SCT041 69.8 68 94% 29.85 0.0
16 00:55 Calm 10.00 Fair CLR 69.8 68 94% 29.85 0.0
16 00:35 Calm 10.00 Fair CLR 69.8 68 94% 29.86 0.0
16 00:15 Calm 10.00 Partly Cloudy SCT070 73.4 68 83% 29.86 0.0
15 23:55 Calm 10.00 Partly Cloudy SCT070 73.4 68 83% 29.86 0.0
15 23:35 Calm 10.00 Partly Cloudy SCT070 73.4 68 83% 29.86 0.0
15 23:15 Calm 10.00 Partly Cloudy SCT060 73.4 69.8 89% 29.86 0.0
15 22:55 N 3 10.00 Mostly Cloudy BKN060 71.6 69.8 94% 29.85 0.0
15 22:35 Calm 10.00 Partly Cloudy SCT049 SCT060 73.4 69.8 89% 29.86 0.0
15 22:15 Calm 10.00 Partly Cloudy SCT049 SCT070 73.4 69.8 89% 29.86 0.0
15 21:55 Calm 10.00 Fair CLR 75.2 68 78% 76 29.85 0.0
15 21:35 Calm 10.00 Partly Cloudy SCT060 SCT080 77 68 74% 79 29.85 0.0
15 21:15 Calm 10.00 Mostly Cloudy SCT050 SCT060 BKN080 78.8 68 70% 81 29.85 0.0
15 20:55 Calm 10.00 Mostly Cloudy BKN070 BKN080 80.6 68 66% 83 29.85 0.0
15 20:35 Calm 10.00 Overcast OVC065 82.4 66.2 58% 85 29.86 0.0
15 20:15 W 5 10.00 Mostly Cloudy BKN065 BKN075 82.4 64.4 55% 84 29.86 0.0
15 19:55 Calm 10.00 Fair CLR 86 64.4 49% 87 29.86 0.0
15 19:35 W 10 G 16 10.00 Fair CLR 86 64.4 49% 87 29.86 0.0
15 19:15 W 8 G 16 10.00 Fair CLR 86 64.4 49% 87 29.85 0.0
15 18:55 W 8 G 18 10.00 Partly Cloudy SCT050 87.8 64.4 46% 89 29.85 0.0
15 18:35 W 9 10.00 Partly Cloudy SCT050 SCT060 87.8 64.4 46% 89 29.85 0.0
15 18:15 W 8 10.00 Partly Cloudy SCT050 SCT065 87.8 64.4 46% 89 29.85 0.0
15 17:55 W 8 G 22 10.00 Partly Cloudy SCT050 SCT065 87.8 64.4 46% 89 29.85 0.0
15 17:35 W 12 G 17 10.00 Partly Cloudy SCT050 87.8 62.6 43% 88 29.85 0.0
15 17:15 W 12 G 17 10.00 Partly Cloudy SCT050 SCT070 87.8 62.6 43% 88 29.85 0.0
15 16:55 W 10 G 18 10.00 Partly Cloudy SCT055 87.8 62.6 43% 88 29.86 0.0
15 16:35 W 16 G 24 10.00 Partly Cloudy SCT055 SCT065 89.6 60.8 38% 90 29.86 0.0
15 16:15 W 16 G 23 10.00 Partly Cloudy SCT060 SCT075 89.6 60.8 38% 90 29.86 0.0
15 15:55 SW 10 G 18 10.00 Mostly Cloudy BKN060 BKN075 89.6 60.8 38% 90 29.86 0.0
15 15:35 SW 12 G 18 10.00 Partly Cloudy SCT060 SCT075 89.6 60.8 38% 90 29.86 0.0
15 15:15 SW 13 G 21 10.00 Fair CLR 89.6 59 36% 89 29.86 0.0
15 14:55 SW 15 G 22 10.00 Fair CLR 89.6 59 36% 89 29.87 0.0
15 14:35 SW 15 G 22 10.00 Partly Cloudy SCT120 89.6 59 36% 89 29.88 0.0
15 14:15 SW 10 G 18 10.00 Mostly Cloudy SCT060 SCT070 BKN120 87.8 59 38% 87 29.88 0.0
15 13:55 SW 10 G 21 10.00 Mostly Cloudy SCT050 BKN070 BKN090 87.8 64.4 46% 89 29.88 0.0
15 13:35 SW 10 10.00 Mostly Cloudy SCT050 BKN070 89.6 64.4 43% 91 29.88 0.0
15 13:15 S 10 G 18 10.00 Partly Cloudy SCT048 SCT060 89.6 64.4 43% 91 29.89 0.0
15 12:55 SW 8 10.00 Fair CLR 89.6 66.2 46% 92 29.9 0.0
15 12:35 SW 9 10.00 Fair CLR 87.8 68 52% 91 29.91 0.0
15 12:15 S 9 10.00 Fair CLR 86 68 55% 89 29.92 0.0
15 11:55 S 9 10.00 Fair CLR 86 68 55% 89 29.92 0.0
15 11:35 SE 8 10.00 Fair CLR 84.2 68 58% 87 29.93 0.0
15 11:15 SW 7 10.00 Fair CLR 82.4 68 62% 85 29.93 0.0
15 10:55 S 6 10.00 Fair CLR 80.6 68 66% 83 29.95 0.0
15 10:35 SW 6 10.00 Fair CLR 80.6 68 66% 83 29.95 0.0
15 10:15 SW 7 10.00 Fair CLR 78.8 66.2 65% 81 29.96 0.0
15 09:55 SW 6 10.00 Fair CLR 77 66.2 69% 79 29.97 0.0
15 09:35 SW 6 10.00 Fair CLR 75.2 64.4 69% 77 29.97 0.0
15 09:15 SW 5 10.00 Fair CLR 77 64.4 65% 79 29.97 0.0
15 08:55 SW 3 10.00 Partly Cloudy SCT055 75.2 64.4 69% 77 29.98 0.0
15 08:35 S 3 10.00 Partly Cloudy SCT034 SCT055 73.4 64.4 74% 29.98 0.0
15 08:15 Calm 10.00 Partly Cloudy SCT036 SCT055 SCT070 71.6 64.4 78% 29.98 0.0
15 07:55 Calm 10.00 Mostly Cloudy BKN037 BKN049 BKN060 71.6 64.4 78% 29.99 0.0
15 07:35 SE 3 10.00 Mostly Cloudy BKN037 BKN050 71.6 64.4 78% 29.98 0.0
15 07:15 SE 3 10.00 Mostly Cloudy SCT033 SCT043 BKN110 69.8 64.4 83% 29.98 0.0
15 06:55 SE 3 10.00 Mostly Cloudy SCT030 SCT040 BKN110 69.8 64.4 83% 29.98 0.0
15 06:35 Calm 10.00 Mostly Cloudy SCT030 SCT039 BKN055 69.8 64.4 83% 29.98 0.0
15 06:15 Calm 10.00 Mostly Cloudy BKN030 BKN039 BKN055 68 66.2 94% 29.98 0.0
15 05:55 Calm 10.00 Partly Cloudy SCT030 SCT038 SCT045 68 64.4 88% 29.98 0.0
15 05:35 Calm 10.00 Mostly Cloudy SCT028 SCT035 BKN055 69.8 64.4 83% 29.97 0.0
15 05:15 Calm 10.00 Mostly Cloudy BKN026 BKN033 BKN043 69.8 64.4 83% 29.97 0.0
15 04:55 Calm 10.00 Mostly Cloudy BKN026 BKN034 69.8 64.4 83% 29.97 0.0
15 04:35 Calm 10.00 Partly Cloudy SCT030 69.8 64.4 83% 29.96 0.0
15 04:15 Calm 10.00 Partly Cloudy SCT030 SCT055 69.8 64.4 83% 29.97 0.0
15 03:55 Calm 10.00 Overcast SCT039 OVC055 69.8 64.4 83% 29.97 0.0
15 03:35 Calm 10.00 Mostly Cloudy SCT039 BKN055 69.8 64.4 83% 29.98 0.0
15 03:15 Calm 10.00 Partly Cloudy SCT041 SCT055 SCT075 69.8 66.2 88% 29.98 0.0
15 02:55 Calm 10.00 Partly Cloudy SCT038 SCT044 SCT055 66.2 66.2 100% 29.98 0.0
15 02:35 Calm 10.00 Partly Cloudy SCT035 SCT046 SCT060 66.2 66.2 100% 29.98 0.0
15 02:15 N 5 7.00 Fair CLR 64.4 64.4 100% 29.98 0.0
15 01:55 Calm 7.00 Fair CLR 66.2 66.2 100% 29.98 0.0
15 01:35 Calm 10.00 Fair CLR 66.2 66.2 100% 29.97 0.0
15 01:15 Calm 7.00 Fair CLR 68 68 100% 29.98 0.0
15 00:55 Calm 10.00 Fair CLR 68 68 100% 29.97 0.0
15 00:35 Calm 10.00 Fair CLR 68 68 100% 29.98 0.0
15 00:15 Calm 10.00 Fair CLR 69.8 68 94% 29.97 0.0
14 23:55 Calm 10.00 Fair CLR 69.8 68 94% 29.97 0.0
14 23:35 Calm 10.00 Fair CLR 73.4 68 83% 29.97 0.0
14 23:15 Calm 10.00 Partly Cloudy SCT070 SCT080 73.4 68 83% 29.97 0.0
14 22:55 Calm 10.00 Mostly Cloudy SCT070 BKN080 71.6 68 88% 29.97 0.0
14 22:35 Calm 10.00 Mostly Cloudy BKN070 BKN110 71.6 69.8 94% 29.97 0.0
14 22:15 Calm 10.00 Mostly Cloudy SCT070 SCT085 BKN110 71.6 69.8 94% 29.96 0.0
14 21:55 Calm 10.00 Mostly Cloudy BKN070 BKN090 71.6 69.8 94% 29.95 0.0
14 21:35 Calm 10.00 Partly Cloudy SCT070 SCT090 71.6 69.8 94% 29.95 0.0
14 21:15 Calm 10.00 Fair CLR 73.4 66.2 78% 29.95 0.0
14 20:55 Calm 10.00 Partly Cloudy SCT080 73.4 68 83% 29.95 0.0
14 20:35 Calm 10.00 Fair CLR 75.2 69.8 83% 75 29.96 0.0
14 20:15 Calm 10.00 Fair CLR 78.8 68 70% 81 29.96 0.0
14 19:55 Calm 10.00 Partly Cloudy SCT110 80.6 69.8 70% 84 29.96 0.0
14 19:35 Calm 10.00 Partly Cloudy SCT110 80.6 68 66% 83 29.97 0.0
14 19:15 Calm 10.00 Fair CLR 82.4 68 62% 85 29.97 0.0
14 18:55 N 3 10.00 Fair CLR 82.4 68 62% 85 29.97 0.0
14 18:35 Calm 10.00 Fair CLR 82.4 64.4 55% 84 29.97 0.0
14 18:15 Calm 10.00 Fair CLR 84.2 62.6 48% 85 29.97 0.0
14 17:55 NW 3 10.00 Fair CLR 86 62.6 46% 87 29.97 0.0
14 17:35 NW 3 10.00 Fair CLR 87.8 60.8 40% 88 29.97 0.0
14 17:15 Calm 10.00 Mostly Cloudy BKN120 86 60.8 43% 86 29.98 0.0
14 16:55 Calm 10.00 Overcast OVC110 86 60.8 43% 86 29.99 0.0
14 16:35 W 3 10.00 Mostly Cloudy BKN120 86 59 40% 85 29.99 0.0
14 16:15 W 3 10.00 Partly Cloudy SCT120 87.8 60.8 40% 88 29.99 0.0
14 15:55 W 5 10.00 Mostly Cloudy BKN120 87.8 60.8 40% 88 30 0.0
14 15:35 W 7 10.00 Partly Cloudy SCT120 87.8 59 38% 87 30.01 0.0
14 15:15 W 7 10.00 Partly Cloudy SCT070 SCT080 SCT090 87.8 59 38% 87 30.01 0.0
14 14:55 SW 6 10.00 Partly Cloudy SCT070 SCT080 SCT090 87.8 57.2 35% 87 30.02 0.0
14 14:35 W 6 10.00 Partly Cloudy SCT060 SCT070 SCT100 89.6 59 36% 89 30.02 0.0
14 14:15 W 5 10.00 Partly Cloudy SCT060 SCT070 SCT080 87.8 62.6 43% 88 30.03 0.0
14 13:55 SW 7 10.00 Partly Cloudy SCT060 SCT080 89.6 59 36% 89 30.03 0.0
14 13:35 SW 5 10.00 Partly Cloudy SCT060 SCT070 SCT090 89.6 60.8 38% 90 30.04 0.0
14 13:15 W 3 10.00 Partly Cloudy SCT055 SCT075 87.8 60.8 40% 88 30.05 0.0
14 12:55 SW 3 10.00 Mostly Cloudy BKN055 BKN075 87.8 59 38% 87 30.06 0.0
14 12:35 S 8 10.00 Partly Cloudy SCT055 SCT075 SCT090 87.8 59 38% 87 30.07 0.0
14 12:15 SW 6 10.00 Partly Cloudy SCT050 87.8 60.8 40% 88 30.08 0.0
14 11:55 SW 5 10.00 Mostly Cloudy BKN050 86 60.8 43% 86 30.09 0.0
14 11:35 S 7 10.00 Partly Cloudy SCT048 SCT060 86 62.6 46% 87 30.09 0.0
14 11:15 SW 5 10.00 Fair CLR 86 60.8 43% 86 30.09 0.0
14 10:55 SW 5 10.00 Fair CLR 84.2 62.6 48% 85 30.09 0.0
14 10:35 SW 3 10.00 Fair CLR 84.2 62.6 48% 85 30.09 0.0
14 10:15 Calm 10.00 Fair CLR 82.4 66.2 58% 85 30.1 0.0
Date Time (edt) Wind (mph) Vis. (mi.) Weather Sky Cond. Air Dwpt Max. Min. Relative Humidity Wind Chill (°F) Heat Index (°F) altimeter (in) sea level (mb) 1 hr 3 hr 6 hr
6 hour
Temperature (ºF) Pressure Precipitation (in)